GFSCGP_925_spd_162.txt.gz
Wind_Speed
1 3 9 8 8 3 1 3 5 5 6 3 6 6 7 10 6 10 12 13 12 11 11 20 20 19 16 13 12 10 7 7 6 5 3 3 4 9 12 14 16 18 19 22
2 9 8 7 5 5 4 2 7 7 7 5 8 9 6 12 17 17 17 15 14 8 9 14 19 19 14 15 12 10 8 6 8 8 7 3 4 6 12 14 14 17 19 22
8 6 4 8 5 7 6 5 4 8 5 3 4 5 6 3 5 7 8 8 11 15 14 11 16 17 15 15 13 10 8 6 6 8 7 6 3 6 12 16 16 15 19 21
8 12 13 8 6 7 5 8 7 6 1 6 1 8 4 4 6 9 13 15 15 14 11 10 13 15 14 13 11 9 8 5 7 8 10 12 12 10 10 13 14 14 17 19
7 5 7 9 9 9 5 8 10 7 5 2 3 3 3 2 4 9 10 11 12 12 14 12 15 19 15 15 12 11 9 7 8 9 11 11 10 9 8 10 12 14 15 20
6 1 4 7 4 7 4 4 5 4 3 4 7 7 4 5 5 1 6 11 13 14 13 13 15 18 17 15 12 9 8 8 7 9 11 11 9 8 10 13 15 17 18 22
2 15 9 4 4 0 3 5 2 2 0 7 7 5 10 3 3 6 12 13 15 16 15 13 14 17 17 15 11 9 7 8 7 10 10 8 8 9 11 13 16 19 19 22
3 6 7 6 19 10 10 11 6 5 4 4 2 6 5 2 5 1 9 11 12 11 11 12 16 19 21 17 12 10 9 9 8 9 8 7 8 10 12 13 14 14 16 16
4 6 3 4 5 10 4 8 15 6 2 1 4 4 3 2 4 5 8 10 8 10 13 12 12 16 19 18 15 12 10 9 9 8 7 8 10 12 15 14 13 14 15 14
4 6 7 9 2 2 11 6 3 1 5 9 4 3 5 5 8 7 7 12 13 11 8 9 13 19 19 16 14 12 11 12 10 9 8 9 10 11 11 12 14 13 14 15
2 4 6 1 5 8 3 4 1 4 4 8 2 6 6 9 9 13 11 10 13 12 10 9 12 20 19 17 16 15 14 14 13 11 11 10 11 11 11 13 14 14 12 15
9 3 7 13 7 3 3 7 7 5 5 2 4 6 3 5 9 10 12 13 9 5 7 9 15 21 22 20 18 18 17 16 14 12 11 10 10 11 12 13 14 14 15 14
8 3 4 7 1 1 5 4 3 3 3 6 5 6 1 3 7 8 7 7 6 6 8 9 13 16 21 22 21 19 18 17 15 13 11 9 7 8 11 12 12 14 15 16
12 7 8 6 1 6 6 5 5 4 3 4 6 5 4 5 7 7 8 6 6 6 8 8 9 14 20 22 22 21 20 18 16 14 12 10 9 7 8 10 11 12 13 16
9 5 5 11 16 16 14 13 7 6 5 7 12 11 13 11 10 10 8 7 7 7 8 9 10 11 18 21 21 21 21 19 17 16 13 12 10 9 6 8 11 11 12 13
2 12 9 17 16 16 17 21 13 6 2 2 4 8 6 2 6 5 8 7 7 9 9 11 10 14 16 19 23 24 22 21 19 16 14 13 12 13 9 7 9 10 11 12
2 3 4 17 13 7 9 23 24 6 5 8 9 7 5 5 7 10 9 9 9 8 10 11 12 16 19 22 25 25 23 21 21 18 16 14 14 15 12 8 7 8 10 12
10 7 4 7 5 6 5 4 18 18 8 8 4 5 9 8 4 4 5 9 8 8 8 9 13 17 22 26 24 22 21 23 22 20 18 16 15 15 13 10 7 6 8 10
14 7 4 3 4 3 5 5 7 8 10 8 9 8 6 5 4 2 6 5 6 6 6 13 21 23 25 27 26 25 25 24 24 22 20 18 16 16 13 12 10 7 6 9
12 13 8 3 4 8 5 5 6 4 7 6 7 6 8 6 5 4 7 5 4 6 12 18 21 23 26 27 28 29 27 26 24 23 20 17 15 15 13 11 11 9 6 8
3 5 13 6 4 5 5 2 6 6 4 3 6 6 11 7 4 4 8 5 6 8 14 20 23 24 27 30 31 27 28 26 23 20 18 17 16 14 12 11 11 10 6 5
6 5 3 3 4 6 5 1 7 5 2 4 6 7 11 6 7 5 6 7 7 9 16 20 20 21 26 29 31 27 26 23 20 20 20 19 16 14 12 12 12 11 7 6
3 4 1 4 4 4 4 5 3 6 5 4 5 5 7 7 6 7 7 8 7 14 17 22 23 23 25 29 30 26 24 22 24 23 21 18 16 13 13 13 13 11 9 8
2 2 3 1 4 5 6 1 3 6 6 5 6 7 9 8 8 8 6 7 7 14 18 21 24 20 21 27 27 24 24 25 26 25 22 20 17 15 13 12 11 13 12 10
4 2 3 4 6 5 5 6 5 5 3 4 4 8 11 8 7 7 7 9 10 16 18 21 22 23 24 28 27 23 25 28 27 24 22 21 20 17 16 13 13 13 10 8
3 4 2 4 4 2 5 4 2 5 5 4 4 1 3 7 9 9 9 12 16 18 20 19 19 20 23 29 28 25 28 29 28 24 23 23 23 20 18 16 13 9 9 9

GFSCGP_925_spd_165.txt.gz
Wind_Speed
2 5 12 11 10 1 2 3 5 3 4 4 10 13 11 16 13 14 15 16 15 15 13 15 14 14 13 12 11 9 7 6 4 3 2 2 3 6 9 10 12 13 14 16
3 14 12 8 7 6 5 6 10 9 3 5 8 13 10 17 22 24 21 19 18 16 15 17 16 14 12 13 10 8 6 5 4 4 3 2 1 2 6 9 10 10 13 15
19 9 6 11 9 8 9 11 7 10 6 4 5 13 10 7 11 13 15 17 18 20 19 17 19 17 14 13 11 9 7 5 4 5 3 3 2 1 4 8 8 9 13 15
11 13 10 9 8 10 9 10 13 11 4 6 2 8 7 7 12 15 17 20 20 20 19 17 19 17 17 15 13 11 8 4 4 5 5 6 6 4 5 6 7 9 12 15
6 6 11 17 17 11 10 6 10 9 8 7 11 6 4 5 7 13 17 20 21 20 20 19 22 20 16 16 15 12 9 5 4 5 6 6 6 6 6 6 9 10 11 13
4 1 5 6 5 13 4 4 3 3 3 8 11 13 19 8 10 4 14 16 19 20 19 20 20 18 17 16 15 14 12 9 6 5 7 8 8 8 6 8 9 9 9 10
4 15 6 4 3 1 4 4 2 4 4 8 4 12 16 2 5 4 12 17 19 21 22 20 19 22 21 20 15 13 12 10 7 6 7 8 9 8 8 7 7 7 8 9
4 5 11 12 19 12 13 10 8 7 6 6 2 8 4 2 4 4 6 14 17 20 20 20 22 24 23 20 17 15 13 11 9 8 8 9 9 9 7 6 6 7 7 9
3 7 2 4 5 13 7 10 13 11 10 5 7 8 4 3 2 2 7 13 17 19 20 19 22 22 20 20 22 18 15 13 11 10 9 9 8 7 6 5 6 7 9 8
6 9 8 4 4 1 6 5 3 3 6 9 8 6 8 7 11 9 9 13 16 18 19 17 17 21 20 26 22 16 14 14 12 10 9 10 7 6 6 7 8 9 9 9
13 4 5 1 6 11 6 5 5 3 7 9 9 6 6 10 9 13 11 11 16 17 16 15 15 20 20 23 22 20 16 16 14 11 11 10 8 7 7 9 11 10 9 10
5 4 7 12 9 4 4 11 12 9 17 4 7 12 1 5 6 9 11 12 11 15 10 11 18 20 20 21 20 23 21 18 16 15 13 11 10 7 9 11 11 11 10 9
4 4 5 12 1 1 5 4 7 5 2 12 10 7 1 4 4 7 10 11 9 9 11 9 14 18 20 20 23 25 22 19 19 18 16 12 10 9 11 12 11 12 12 11
6 4 9 11 9 1 9 15 13 10 6 12 14 15 6 5 4 7 10 10 13 11 11 12 10 15 20 19 23 19 19 19 19 19 17 15 12 10 11 11 11 11 12 13
7 6 12 13 11 16 18 19 23 14 14 14 17 14 10 9 9 11 13 10 11 12 12 13 14 14 20 20 20 19 20 20 19 18 16 15 13 11 10 11 11 11 10 11
6 6 11 20 20 18 19 19 23 21 18 14 17 19 7 3 5 8 12 13 12 11 12 13 13 17 21 23 23 22 22 22 20 18 16 15 13 12 10 9 9 9 9 9
12 7 9 13 16 13 12 22 23 25 20 17 17 16 5 3 8 11 13 15 15 12 12 14 15 18 23 25 25 24 24 22 21 18 16 15 14 14 11 9 8 7 6 7
12 9 7 10 9 12 10 6 14 18 21 21 12 6 7 9 7 3 4 12 11 11 11 11 12 18 21 23 23 21 22 22 21 18 17 16 15 14 12 10 8 6 5 5
16 11 6 8 11 12 13 7 7 9 11 18 20 12 7 3 3 4 8 10 12 10 9 13 16 18 21 24 23 22 22 21 20 19 19 17 16 15 14 12 10 7 6 6
10 11 6 5 5 7 6 5 7 7 8 6 14 12 10 10 6 5 10 10 10 11 12 15 17 17 20 22 24 24 21 21 21 20 20 19 16 15 14 13 12 8 6 6
4 4 11 10 9 8 6 5 2 8 2 2 7 6 12 8 4 4 12 7 9 10 14 16 18 20 21 23 24 23 22 21 20 18 17 16 16 16 15 13 12 10 7 6
8 5 5 6 7 8 1 4 2 4 1 1 2 5 9 4 4 7 9 10 10 11 15 16 18 17 19 23 25 22 22 20 19 18 18 17 16 15 14 13 13 10 8 7
4 5 2 4 3 7 5 7 7 6 3 2 3 3 10 9 6 8 8 10 9 13 14 16 17 17 18 21 22 22 21 21 20 19 19 18 17 15 14 14 13 11 9 7
3 4 2 1 1 4 12 11 10 9 3 2 3 8 12 11 10 7 9 10 10 14 15 17 18 18 19 20 20 20 22 22 21 21 20 19 18 16 14 13 12 11 10 8
3 5 5 4 8 6 11 11 11 9 6 3 3 6 15 11 11 11 10 11 10 15 17 20 20 20 21 22 21 21 23 24 23 21 21 19 17 16 15 12 12 12 10 9
4 6 5 5 4 2 4 4 3 5 5 2 3 3 0 4 7 8 8 10 15 18 20 19 18 18 20 23 22 22 24 25 24 22 21 20 19 17 15 15 12 10 11 11

GFSCGP_925_spd_168.txt.gz
Wind_Speed
12 10 14 14 15 18 12 12 14 9 5 6 13 16 17 15 15 15 17 19 19 20 20 20 19 17 16 14 12 10 7 5 4 3 2 1 2 4 6 6 7 8 9 11
16 18 18 15 13 15 16 15 16 15 10 10 16 20 19 17 20 21 22 21 21 20 19 21 20 18 17 16 13 11 8 6 4 3 2 2 2 3 4 4 5 7 8 10
24 12 4 13 16 16 18 17 15 14 9 14 16 25 26 24 18 19 16 17 19 21 21 19 22 21 18 16 14 12 9 7 5 4 3 3 3 2 2 3 3 5 7 8
19 23 26 19 19 16 19 14 12 16 12 11 2 12 9 8 17 17 17 17 19 21 21 20 22 22 20 17 15 13 10 8 5 4 4 3 1 2 3 2 4 4 7 9
8 8 15 23 25 16 15 7 11 12 15 16 17 8 7 6 14 16 19 19 20 21 22 21 23 24 21 19 16 14 11 9 7 5 4 3 3 4 3 2 3 5 6 9
15 4 6 11 8 13 6 7 7 7 9 13 17 16 22 15 17 14 16 18 19 20 21 21 26 25 22 20 18 16 14 10 8 6 5 3 5 4 3 3 3 5 6 7
10 19 14 10 9 6 15 11 5 8 7 10 2 11 18 3 4 6 12 17 19 21 22 21 22 24 24 23 20 16 14 11 9 7 6 5 6 5 5 3 4 5 6 7
7 8 13 17 20 13 20 17 9 11 12 13 8 10 7 3 3 5 4 11 16 20 20 22 23 26 24 23 21 18 16 12 10 9 8 5 5 5 5 5 5 6 6 7
4 9 2 4 12 15 12 15 17 20 22 12 16 20 12 9 9 10 9 12 16 19 21 22 24 26 24 23 22 20 17 14 13 11 10 8 6 6 6 6 5 5 6 5
7 9 13 12 8 11 15 5 6 9 7 19 15 17 12 6 13 11 10 14 15 17 19 20 19 25 24 25 24 19 17 16 14 12 10 8 8 8 7 6 5 6 5 5
10 3 3 6 8 12 9 13 12 11 14 12 15 14 8 5 12 14 9 10 15 17 17 19 17 25 22 22 22 20 18 17 15 13 11 10 9 9 8 6 5 5 5 5
9 5 11 16 13 15 15 16 16 12 13 13 14 16 3 5 5 7 10 12 12 15 11 15 21 21 23 24 23 26 19 20 16 14 13 12 10 9 8 7 6 5 5 5
3 5 6 11 12 5 12 16 13 12 11 18 13 10 1 4 7 4 8 11 13 13 13 9 15 21 19 23 23 25 22 19 17 20 17 13 12 10 10 8 6 6 6 6
1 2 6 13 15 10 11 11 11 10 5 12 18 21 23 13 10 6 8 10 14 15 13 13 13 16 22 22 22 23 21 20 19 19 20 17 14 13 11 8 8 8 7 8
6 7 15 20 21 21 21 19 22 23 20 11 15 17 24 17 11 6 3 7 13 17 18 19 17 16 22 24 24 23 23 23 22 20 18 16 15 13 12 10 9 8 8 8
12 12 14 20 19 20 24 22 25 25 27 25 24 27 23 17 16 13 19 17 19 19 19 19 19 20 25 26 26 25 25 24 23 22 19 18 16 14 13 11 9 8 8 8
14 10 10 17 16 17 13 24 24 28 24 21 21 31 25 21 14 17 18 19 21 21 19 20 20 19 25 27 27 28 27 25 24 22 20 20 18 16 14 12 10 9 8 7
19 16 12 13 16 18 19 19 17 21 24 22 23 28 23 12 8 6 9 15 19 16 16 15 13 20 23 26 27 26 26 26 25 22 21 20 19 17 15 13 11 9 8 7
21 18 12 13 15 18 24 22 20 14 21 21 23 24 16 10 5 15 12 12 14 15 13 16 20 21 24 27 28 27 26 26 25 23 22 21 19 18 16 14 12 10 8 7
14 16 9 10 13 16 17 4 8 10 17 18 14 15 14 14 12 11 10 11 12 15 19 20 22 22 23 26 28 27 26 26 25 24 23 21 19 18 17 15 13 10 9 8
6 6 13 13 9 5 14 6 6 12 4 13 8 7 10 12 10 0 13 13 14 17 19 20 21 21 22 25 26 25 25 24 24 22 22 20 18 17 17 15 13 12 9 8
11 6 7 8 7 11 11 4 7 8 7 12 11 5 6 7 1 8 14 14 15 16 18 18 19 19 21 23 25 23 23 23 23 23 22 20 18 17 18 17 15 13 10 9
5 10 5 4 2 5 5 6 12 9 11 16 15 8 5 7 6 12 13 13 13 15 16 17 17 20 19 21 22 22 23 25 24 23 21 20 19 18 18 17 16 14 12 10
5 7 5 4 2 6 8 2 6 11 14 14 16 13 7 10 10 13 13 12 12 13 14 17 18 19 20 21 21 22 25 25 24 22 21 20 20 19 18 16 15 13 12 11
5 2 8 11 12 11 6 8 7 10 17 17 12 9 8 9 12 13 11 11 9 13 15 17 18 19 20 22 22 23 25 26 24 22 21 21 20 20 18 15 14 12 10 9
11 12 8 9 8 5 9 5 9 7 9 13 11 4 1 4 6 3 6 9 12 13 17 18 18 19 21 23 23 24 26 26 24 23 22 22 21 20 18 16 13 10 10 12

GFSCGP_925_spd_171.txt.gz
Wind_Speed
18 15 18 19 18 17 19 23 20 18 5 8 16 21 20 18 15 16 17 18 20 21 21 24 23 21 19 18 17 16 14 12 10 8 7 5 4 4 5 6 7 9 10 11
20 24 22 19 18 16 16 20 21 21 21 13 16 22 20 21 20 21 20 19 20 19 20 21 23 22 21 21 19 17 15 13 11 9 7 5 5 5 5 5 6 9 9 11
26 21 17 22 22 21 18 22 21 23 19 14 13 27 26 23 26 22 20 19 19 21 22 21 24 26 24 23 21 19 17 15 12 10 9 8 7 5 3 3 3 5 7 8
21 25 28 22 21 17 21 19 21 21 17 19 18 23 22 20 19 27 20 19 19 21 22 22 23 26 26 24 22 20 18 15 12 9 8 6 3 4 3 2 2 2 5 6
23 16 15 24 31 23 23 16 15 16 17 19 25 14 25 19 21 18 18 20 19 21 24 23 21 26 25 23 22 20 17 14 11 9 9 8 7 6 4 3 2 1 3 5
20 19 8 16 15 17 16 12 13 14 14 17 22 19 32 17 16 17 18 18 20 20 21 20 26 26 25 23 22 20 18 14 11 9 8 8 8 6 5 3 3 2 3 4
20 22 20 13 11 8 10 12 5 8 10 18 15 16 22 4 3 5 12 18 18 18 19 21 22 24 26 25 24 22 20 16 13 11 9 9 8 7 5 4 3 3 3 4
14 14 17 21 18 14 17 18 9 11 15 14 14 13 15 4 5 6 3 7 15 17 18 21 22 27 27 26 25 22 20 17 15 13 11 9 8 6 6 4 4 5 5 3
8 17 6 3 12 16 15 17 19 19 21 13 13 21 23 13 8 7 9 10 15 19 20 22 22 28 27 26 24 22 21 18 15 14 12 10 8 7 7 6 6 6 5 3
3 6 13 13 11 14 15 13 8 1 5 20 18 18 13 7 8 9 9 14 15 16 18 19 18 26 27 26 22 21 20 18 16 14 12 10 9 8 8 7 7 6 5 5
4 7 12 6 9 13 12 13 14 12 8 4 11 13 10 6 2 10 12 10 10 13 16 18 16 26 25 25 25 22 21 19 18 15 12 11 10 9 8 8 8 7 6 6
5 5 9 19 16 15 11 17 18 11 14 14 15 18 17 17 10 8 6 10 9 12 10 15 18 24 25 23 22 22 20 22 18 16 14 12 11 10 9 9 8 8 7 6
2 3 7 14 19 21 12 15 18 18 13 15 10 9 6 1 3 8 10 9 12 13 15 13 17 18 22 24 22 22 21 22 17 18 16 14 12 11 11 10 8 8 8 6
3 6 13 14 19 9 9 14 18 10 4 12 17 20 25 24 20 13 11 10 14 14 14 11 15 15 21 24 22 24 21 22 19 20 19 18 16 15 12 10 10 11 9 8
8 7 14 16 20 21 23 22 21 23 21 19 19 22 26 22 17 2 16 8 12 15 17 18 17 19 23 25 26 25 24 24 22 22 18 17 16 14 14 12 10 10 9 9
19 14 19 22 27 25 24 23 27 28 25 27 27 27 27 29 24 19 16 17 15 15 18 20 21 21 23 27 27 27 26 25 24 23 20 19 17 15 14 12 11 10 9 9
15 11 12 18 20 20 18 18 23 26 26 26 24 26 27 27 22 23 27 25 25 21 17 20 21 20 25 27 28 29 27 26 26 24 23 21 19 17 15 14 13 12 10 10
19 17 12 15 18 21 20 21 26 28 27 26 23 24 27 24 23 19 18 12 16 20 17 19 16 22 28 28 27 26 27 26 25 24 23 22 20 18 17 15 14 12 11 10
20 17 13 14 17 21 25 26 23 23 23 25 21 20 24 20 20 15 8 8 6 6 10 17 22 22 25 28 27 28 27 26 26 25 24 23 21 20 18 17 15 13 12 10
23 21 14 14 18 20 23 14 19 23 14 9 12 15 17 14 11 9 8 8 5 11 17 20 23 25 26 28 29 28 28 28 27 26 24 23 22 21 19 17 15 13 12 10
11 11 16 15 14 7 14 16 9 11 8 10 13 13 11 8 7 3 15 10 14 14 18 24 27 26 27 28 29 27 27 26 26 26 24 23 22 20 19 17 16 14 12 11
16 12 11 9 9 11 8 7 7 9 10 8 11 15 19 14 5 3 7 9 12 17 21 24 22 22 24 26 27 26 26 26 26 26 25 24 22 20 21 18 16 15 13 11
14 11 8 4 3 5 5 8 7 9 12 8 8 14 14 16 10 5 9 12 14 17 19 21 20 21 22 25 25 25 24 26 27 26 25 24 22 20 21 20 18 16 14 13
9 5 5 7 4 8 8 4 3 5 6 8 9 13 16 14 9 7 10 12 13 14 16 19 21 21 22 24 23 23 25 27 27 26 25 24 23 21 21 19 18 16 15 14
12 6 7 8 10 11 7 3 4 2 3 4 14 14 13 11 5 8 12 11 11 13 16 18 18 19 21 23 22 23 27 28 27 25 25 23 22 22 21 18 17 15 13 13
13 9 7 7 8 7 6 8 8 9 6 10 9 10 6 6 8 7 3 5 7 10 12 15 18 19 21 23 23 25 26 28 27 25 24 23 22 22 21 19 12 8 14 11